Date,TemperatureHighF,TemperatureAvgF,TemperatureLowF,DewpointHighF,DewpointAvgF,DewpointLowF,HumidityHigh,HumidityAvg,HumidityLow,PressureMaxIn,PressureMinIn,WindSpeedMaxMPH,WindSpeedAvgMPH,GustSpeedMaxMPH,PrecipitationSumIn
2012-12-6,53.4,48.9,42.1,52.9,48.4,41.8,99,98,97,30.15,30.06,2,0,3,0.00
2012-12-7,66.4,47.3,38.8,52.4,43.0,36.5,99,87,41,30.17,30.00,2,0,4,0.00
2012-12-8,60.8,44.7,36.7,43.3,35.5,27.5,96,72,33,30.14,29.97,3,0,4,0.00
2012-12-9,66.0,49.5,41.0,51.0,38.3,-2.7,99,68,15,30.22,30.05,38,1,38,83.03
2012-12-10,68.5,50.0,41.2,49.8,42.5,34.9,98,77,43,30.28,30.08,3,0,4,0.00
2012-12-11,64.0,47.5,38.3,46.5,39.2,31.0,99,76,30,30.15,29.80,5,1,10,0.09
2012-12-12,44.2,39.9,34.5,42.8,39.0,34.0,99,97,85,29.94,29.81,4,1,8,0.08
2012-12-13,54.3,37.7,31.6,42.3,34.7,31.4,99,90,53,29.96,29.78,4,0,6,0.04
2012-12-14,45.3,35.7,29.5,37.9,31.4,28.8,99,86,54,29.95,29.86,3,0,4,0.00
2012-12-16,46.2,42.9,39.0,43.0,38.2,32.7,99,84,61,30.15,30.02,5,1,10,0.25
2012-12-17,47.7,44.2,40.1,46.9,43.7,39.8,99,98,95,30.06,29.97,6,2,10,0.79
2012-12-18,48.7,35.5,28.4,43.0,31.3,21.5,99,86,37,30.22,29.96,4,0,5,0.01
2012-12-19,49.8,33.4,25.3,24.2,19.8,2.5,82,62,16,30.35,30.22,3,0,4,0.00
2012-12-20,56.8,41.1,29.3,24.7,16.5,6.1,76,41,14,30.32,30.00,6,1,11,0.00
2012-12-21,45.3,41.7,35.6,42.4,24.8,6.7,99,60,21,30.05,29.89,7,1,13,0.47
2012-12-22,45.1,41.6,38.3,44.2,40.9,38.0,99,98,93,30.14,29.81,11,2,17,0.98
2012-12-23,43.2,41.5,39.4,42.6,41.2,39.1,99,99,98,30.12,29.89,9,2,17,1.72
2012-12-24,53.8,41.5,35.1,48.7,38.1,-99.9,99,90,1,30.22,29.99,4,0,9,87.59
2012-12-25,42.6,37.9,34.5,39.5,35.2,30.7,99,90,80,30.21,29.82,6,0,14,1.22
2012-12-26,42.4,38.1,32.5,42.2,37.7,31.8,99,98,94,30.13,29.84,6,1,9,89.18
2012-12-27,55.2,36.7,30.7,46.3,33.7,29.2,99,90,60,30.22,30.04,4,0,6,0.01
2012-12-28,43.7,36.8,30.0,34.1,30.5,27.6,95,79,59,30.25,30.11,2,0,3,0.00
2012-12-29,57.6,40.2,34.5,34.2,31.2,21.8,87,72,28,30.12,29.96,2,0,3,0.00
2012-12-30,56.8,38.9,30.7,35.7,25.2,12.9,91,62,19,30.22,29.97,3,0,4,0.00
2012-12-31,50.7,36.0,28.0,32.8,23.2,13.9,89,62,26,30.33,30.19,4,0,5,0.00